CHIUDI BANNER

LIVE Streaming HD
Get Adobe Flash player
Dati meteo stazione (refresh automatico ogni minuto)
Latina(LT) VENTO: VELOCITÀ   PIOGGIA: QTA GIORNO TEMPERATURA: ATTUALE
SPOT: Latina lido
(Hotel Tirreno) Posizione su Googlemap: Latitudine 41.41 Longitudine 12.84
RAFFICA MASSIMA: QTA MENSILE: MASSIMA:
VELOCITÀ MEDIA: QTA ANNUALE: MINIMA:
DIREZIONE: UMIDITÀ: WIND CHILL:
TIPO: DEW POINT:
BEAUFORT: PRESSIONE:
I nostri partner
Latina(LT) nelle ultime ore
Applica filtri in visualizzazione Intervallo delle letture nelle ultime

Ora Direzione Vento Velocita' Vento Media Vento Raffica Max. Temperatura Wind Chill Pioggia Pressione
11:32:1953 °(NE)0 Kts0 Kts3.8 Kts16.3 °C16.3 °C0 mm1018.3 Hpa
11:27:2953 °(NE)0 Kts0 Kts3.8 Kts16.2 °C16.2 °C0 mm1018.3 Hpa
11:22:1153 °(NE)0 Kts0 Kts3.8 Kts16.1 °C16.1 °C0 mm1018.3 Hpa
11:17:2453 °(NE)0 Kts0 Kts3.8 Kts16 °C16 °C0 mm1018.2 Hpa
11:12:0553 °(NE)0 Kts0 Kts3.8 Kts15.8 °C15.8 °C0 mm1018.3 Hpa
11:07:1653 °(NE)0 Kts0 Kts3.8 Kts15.6 °C15.6 °C0 mm1018.3 Hpa
11:02:2753 °(NE)0.3 Kts0 Kts3.8 Kts15.4 °C15.4 °C0 mm1018.3 Hpa
10:57:0653 °(NE)0 Kts0.3 Kts3.8 Kts15.3 °C14.3 °C0 mm1018.3 Hpa
10:52:1853 °(NE)2.1 Kts0.3 Kts3.8 Kts15.2 °C14.2 °C0 mm1018.2 Hpa
10:47:2553 °(NE)0.3 Kts0.3 Kts3.8 Kts15.1 °C14.1 °C0 mm1018.4 Hpa
10:42:2753 °(NE)2.1 Kts0.3 Kts3.8 Kts14.9 °C14 °C0 mm1018.3 Hpa
10:37:0653 °(NE)0.3 Kts0 Kts3.8 Kts14.8 °C14.8 °C0 mm1018.3 Hpa
10:32:0553 °(NE)1.2 Kts0 Kts3.8 Kts14.6 °C14.6 °C0 mm1018.2 Hpa
10:27:1653 °(NE)0 Kts0.3 Kts3.8 Kts14.3 °C13.3 °C0 mm1018.2 Hpa
10:22:2553 °(NE)1.2 Kts0.3 Kts3.8 Kts14.1 °C13 °C0 mm1018.2 Hpa
10:17:3553 °(NE)0.3 Kts0.3 Kts3.8 Kts13.9 °C12.9 °C0 mm1018.2 Hpa
10:12:1353 °(NE)0.3 Kts0.3 Kts3.8 Kts13.8 °C12.7 °C0 mm1018.3 Hpa
10:07:2553 °(NE)1.2 Kts1.2 Kts3.8 Kts13.6 °C11.8 °C0 mm1018.3 Hpa
10:02:3553 °(NE)1.2 Kts1.2 Kts3.8 Kts13.3 °C11.5 °C0 mm1018.2 Hpa
09:57:1853 °(NE)1.2 Kts1.2 Kts3.8 Kts13.1 °C11.3 °C0 mm1018 Hpa
09:52:3053 °(NE)3 Kts1.2 Kts3.8 Kts12.9 °C11 °C0 mm1018 Hpa
09:47:0953 °(NE)1.2 Kts1.2 Kts3.8 Kts12.7 °C10.9 °C0 mm1017.7 Hpa
09:41:5153 °(NE)0.3 Kts1.2 Kts3.8 Kts12.4 °C10.5 °C0 mm1017.8 Hpa
09:37:1553 °(NE)1.2 Kts1.2 Kts3.8 Kts12.2 °C10.3 °C0 mm1017.7 Hpa